Location: ??????
(41.3164°N, 22.6615°E)
Time: 17:09:21
(UTC+00:00)

deb Kosmos-1275 - Pass Details

Date: 01 February 2023
Orbit: 812 x 848 km, 82.9° (Epoch: 20 March)

Event Time Altitude Azimuth Distance (km) Brightness Sun altitude
Rises 16:44:05 0° 245° (WSW) 3,400 ? -11.4°
Reaches altitude 10° 16:48:49 10° 282° (WNW) 2,477 ? -12.2°
Maximum altitude 16:50:10 11° 296° (WNW) 2,421 ? -12.5°
Drops below altitude 10° 16:51:31 10° 310° (NW) 2,482 ? -12.7°
Sets 16:56:18 0° 347° (NNW) 3,425 ? -13.6°
